Regional Weather Roundup
Issued by NWS

Home | Current Version | Previous Version | Text Only | Print | Product List | Glossary On
Versions: 1 2 3 4 5 6 7 8 9 10 11 12 13 14 15 16 17 18 19 20 21 22 23 24 25 26 27
000
ASUS42 KFFC 242203
RWRGA
WEATHER ROUNDUP FOR GEORGIA
NATIONAL WEATHER SERVICE PEACHTREE CITY GA
600 PM EDT SUN JUL 24 2016

NOTE: "FAIR" INDICATES FEW OR NO CLOUDS BELOW 12,000 FEET WITH NO
SIGNIFICANT WEATHER AND/OR OBSTRUCTIONS TO VISIBILITY.

* = USE WITH CAUTION. THE STATIONS MARKED WITH AN ASTERISK MAY NOT
REPORT WEATHER SUCH AS PRECIPITATION, FOG, OR THUNDER AND ARE NOT
QUALITY CONTROLLED BY NWS.

THE REMARK "TC" DENOTES TEMPERATURE READING IN DEGREES CELSIUS.

GAZ001>058-242300-
NORTH GEORGIA

CITY           SKY/WX    TMP DP  RH WIND       PRES   REMARKS
ATLANTA        CLOUDY    90  70  51 SE8       30.02R HX  95
ATHENS         MOSUNNY   97  67  37 VRB5      30.00S HX 101
CHAMBLEE       CLOUDY    90  69  50 SW6       30.01S HX  94
PEACHTREE CITY SUNNY     95  64  35 SW8       30.01S HX  97
ROME           SUNNY     94  68  42 VRB6      29.98F HX  98
WEST ATLANTA   CLOUDY    95  66  38 VRB6      29.99S HX  98
CARTERSVILLE   SUNNY     93  69  45 CALM      30.00F HX  98


CITY           SKY/WX    TMP DP  RH WIND       PRES   REMARKS
DALTON*        PTSUNNY   86  81  84 CALM      29.99S HX 102
LAWRENCEVILLE* MOSUNNY   95  70  43 CALM      30.02S HX 101
MARIETTA       PTSUNNY   91  69  49 VRB3      30.02R HX  95
KENNESAW*      MOSUNNY   91  70  49 W6        29.95F HX  97
CANTON*        MOSUNNY   90  59  35 CALM      30.05S
BLAIRSVILLE*     N/A    N/A N/A N/A MISG      30.08S
$$

GAZ059>098-102>109-242300-
CENTRAL GEORGIA

CITY           SKY/WX    TMP DP  RH WIND       PRES   REMARKS
AUGUSTA-BUSH   CLOUDY    97  67  37 E5        29.97S HX 101
AUGUSTA-DANIEL PTSUNNY   97  68  38 S8        29.99S HX 102
COLUMBUS       MOSUNNY   96  64  34 SW10      29.97S HX  98
MACON          PTSUNNY   85  75  72 VRB6      29.98F HX  93
ROBINS AFB     MOSUNNY   94  73  50 N8        29.98S HX 102


CITY           SKY/WX    TMP DP  RH WIND       PRES   REMARKS
LAGRANGE*      CLOUDY    94  74  51 CALM      29.99S HX 104
MILLEDGEVILLE* MOSUNNY   90  72  55 CALM      30.00F HX  96
$$

GAZ099>101-110>166-242300-
SOUTH GEORGIA

CITY           SKY/WX    TMP DP  RH WIND       PRES   REMARKS
SAVANNAH       MOSUNNY   89  75  63 S7        30.00F HX  99
VALDOSTA       MOSUNNY   91  72  53 S5        29.98S HX  98
ALMA           PTSUNNY   90  70  51 E13G24    30.00R HX  95
ST SIMONS      SUNNY     90  74  59 SE13      30.00F HX  99
FT STEWART     CLOUDY    77  73  88 CALM      29.99F
ALBANY         SUNNY     96  64  34 S12       29.99F HX  98
HUNTER AFB     SUNNY     90  78  67 SE9       29.98F HX 104
MOODY AFB      SUNNY     95  68  41 S6        29.98S HX  99
BRUNSWICK      SUNNY     91  72  52 SE7       30.01F HX  98


CITY           SKY/WX    TMP DP  RH WIND       PRES   REMARKS
BAINBRIDGE*    MOSUNNY   95  72  46 SW9       29.97S HX 103
MOULTRIE*      SUNNY     93  68  43 CALM      29.99F HX  97
VIDALIA*       MOSUNNY   99  64  32 E5        29.98S HX 101
WAYCROSS*      RAIN      86  77  74 N20       30.02R HX  96
DOUGLAS*       CLOUDY    93  68  43 CALM      29.99S HX  97
$$




USA.gov is the U.S. government's official web portal to all federal, state and local government web resources and services.